Find PRAETORIAN SDA_514

NORAD ID: 100072 Int'l Des: 2026-163P Country: USA operational

当前视图

正在加载3D地球...

About PRAETORIAN SDA_514

PRAETORIAN SDA_514 (NORAD 100072) is a satellite of USA.

即将过境

Passes for default location (London). Set your location on the main map for personalized predictions.

高度历史

Loading altitude history...

两行轨道根数

1 A0072U 26206.56666639 .00000136 00000-0 10877-3 0 9998
2 A0072 81.4848 301.7590 0012671 189.3806 170.7118 13.85291444 1211
Epoch: Jul 25, 2026 • Age: 11 hours

当前状态

高度 940.5 km
远地点 / 近地点 N/A
速度 7.39 km/s
星下点 25.42°N, 162.39°E
类型 other

Most Searched